1 Minute Report
Date Time Wind Direction Wind Speed Wind Gust Wind Variable Altimeter Temperature Dewpoint Relative Humidity Visibility Ceiling Precip Present Weather Density Alt Wind Chill Heat Index
24 JUN 12 21:42 219 05 N/A N/A 29.93 75(F), 24(C) 55(F), 13(C) 48% 10+ CLR N/A NO PRECIPITATION 1600 N/A 78 F 4465
24 JUN 12 21:41 262 03 N/A N/A 29.93 75(F), 24(C) 55(F), 13(C) 48% 10+ CLR N/A NO PRECIPITATION 1600 N/A 78 F 4464
24 JUN 12 21:40 228 06 N/A N/A 29.93 75(F), 24(C) 55(F), 13(C) 48% 10+ CLR N/A NO PRECIPITATION 1600 N/A 78 F 4463
24 JUN 12 21:39 236 03 N/A N/A 29.93 77(F), 25(C) 55(F), 13(C) 47% 10+ CLR N/A NO PRECIPITATION 1700 N/A 79 F 4462
24 JUN 12 21:38 246 04 N/A N/A 29.93 77(F), 25(C) 55(F), 13(C) 47% 10+ CLR N/A NO PRECIPITATION 1700 N/A 79 F 4461
24 JUN 12 21:37 227 04 N/A N/A 29.93 77(F), 25(C) 55(F), 13(C) 47% 10+ CLR N/A NO PRECIPITATION 1700 N/A 79 F 4460
24 JUN 12 21:36 225 03 N/A N/A 29.93 77(F), 25(C) 55(F), 13(C) 47% 10+ CLR N/A NO PRECIPITATION 1700 N/A 79 F 4459
24 JUN 12 21:35 241 06 N/A N/A 29.93 77(F), 25(C) 55(F), 13(C) 47% 10+ CLR N/A NO PRECIPITATION 1700 N/A 78 F 4458
24 JUN 12 21:34 254 05 N/A N/A 29.93 77(F), 25(C) 54(F), 12(C) 46% 10+ CLR N/A NO PRECIPITATION 1700 N/A 78 F 4457
24 JUN 12 21:33 218 05 N/A N/A 29.93 77(F), 25(C) 54(F), 12(C) 46% 10+ CLR N/A NO PRECIPITATION 1700 N/A 78 F 4456
24 JUN 12 21:32 222 05 N/A N/A 29.93 77(F), 25(C) 54(F), 12(C) 45% 10+ CLR N/A NO PRECIPITATION 1700 N/A 78 F 4455
24 JUN 12 21:31 246 03 N/A N/A 29.93 77(F), 25(C) 54(F), 12(C) 45% 10+ CLR N/A NO PRECIPITATION 1700 N/A 78 F 4454
24 JUN 12 21:30 212 05 N/A N/A 29.93 79(F), 26(C) 54(F), 12(C) 45% 10+ CLR N/A NO PRECIPITATION 1800 N/A 80 F 4453
24 JUN 12 21:29 228 08 N/A N/A 29.93 79(F), 26(C) 54(F), 12(C) 45% 10+ CLR N/A NO PRECIPITATION 1800 N/A 80 F 4452
24 JUN 12 21:28 228 04 N/A N/A 29.93 79(F), 26(C) 54(F), 12(C) 45% 10+ CLR N/A NO PRECIPITATION 1800 N/A 80 F 4451
24 JUN 12 21:27 239 06 N/A N/A 29.93 79(F), 26(C) 54(F), 12(C) 44% 10+ CLR N/A NO PRECIPITATION 1800 N/A 80 F 4450
24 JUN 12 21:26 245 06 N/A N/A 29.94 79(F), 26(C) 54(F), 12(C) 44% 10+ CLR N/A NO PRECIPITATION 1800 N/A 80 F 4449
24 JUN 12 21:25 245 05 N/A N/A 29.94 79(F), 26(C) 54(F), 12(C) 44% 10+ CLR N/A NO PRECIPITATION 1800 N/A 80 F 4448
24 JUN 12 21:24 212 06 N/A N/A 29.94 79(F), 26(C) 54(F), 12(C) 44% 10+ CLR N/A NO PRECIPITATION 1800 N/A 80 F 4447
24 JUN 12 21:23 217 04 N/A N/A 29.94 79(F), 26(C) 54(F), 12(C) 44% 10+ CLR N/A NO PRECIPITATION 1800 N/A 80 F 4446
24 JUN 12 21:22 228 05 N/A N/A 29.94 79(F), 26(C) 54(F), 12(C) 44% 10+ CLR N/A NO PRECIPITATION 1800 N/A 80 F 4445
24 JUN 12 21:21 265 03 N/A N/A 29.94 79(F), 26(C) 54(F), 12(C) 44% 10+ CLR N/A NO PRECIPITATION 1800 N/A 80 F 4444
24 JUN 12 21:20 234 05 N/A N/A 29.94 79(F), 26(C) 54(F), 12(C) 44% 10+ CLR N/A NO PRECIPITATION 1800 N/A 80 F 4443
24 JUN 12 21:19 213 04 N/A N/A 29.94 79(F), 26(C) 54(F), 12(C) 44% 10+ CLR N/A NO PRECIPITATION 1800 N/A 80 F 4442
24 JUN 12 21:18 214 05 N/A N/A 29.94 79(F), 26(C) 54(F), 12(C) 44% 10+ CLR N/A ( NO`PRECIPITATION 1700 N/A 80 F 4441
24 JUN 12 21:17 220 07 N/A N/A 29.94 79(F), 26(C) 54(F), 12(C) 44% 10+ CLR N/A NO PRECIPITATION 1700 N/A 80 F 4440
24 JUN 12 21:16 246 05 N/A N/A 29.94 79(F), 26(C) 54(F), 12(C) 44% 10+ CLR N/A NO PRECIPITATION 1700 N/A 79 F 4439
24 JUN 12 21:15 229 04 N/A N/A 29.94 79(F), 26(C) 54(F), 12(C) 43% 10+ CLR N/A NO0PRECIPITATION ! 1700 N/A 79 F 4438
24 JUN 12 21:14 227 06 N/A N/A 29.94 79(F), 26(C) 54(F), 12(C) 43% 10+ CLR N/A NO PRECIPITATION 1700 N/A 79 F 4437
24 JUN 12 21:13 252 04 N/A N/A 29.94 79(F), 26(C) 54(F), 12(C) 43% 10+ CLR N/A NO PRECIPITATION 1700 N/A 79 F 4436
24 JUN 12 21:12 232 03 N/A N/A 29.94 79(F), 26(C) 54(F), 12(C) 43% 10+ CLR N/A NO PRECIPITATION 1700 N/A 79 F 4435
24 JUN 12 21:11 264 04 N/A N/A 29.94 79(F), 26(C) 54(F), 12(C) 42% 10+ CLR N/A NO PRECIPITATION 1700 N/A 79 F 4434
24 JUN 12 21:10 225 05 N/A N/A 29.94 79(F), 26(C) 54(F), 12(C) 42% 10+ CLR N/A NO PRECIPITATION 1700 N/A 79 F 4433
24 JUN 12 21:09 205 04 N/A N/A 29.94 79(F), 26(C) 54(F), 12(C) 42% 10+ CLR N/A NO PRECIPITATION 1700 N/A 79 F 4432
24 JUN 12 21:08 242 04 N/A N/A 29.94 79(F), 26(C) 54(F), 12(C) 42% 10+ CLR N/A NO PRECIPITATION 1700 N/A 79 F 4431
24 JUN 12 21:07 232 04 N/A N/A 29.94 79(F), 26(C) 54(F), 12(C) 42% 10+ CLR N/A NO PRECIPITATION 1700 N/A 79 F 4430
24 JUN 12 21:06 213 07 N/A N/A 29.94 79(F), 26(C) 54(F), 12(C) 41% 10+ CLR N/A NO PRECIPITATION 1700 N/A 79 F 4429
24 JUN 12 21:04 238 03 N/A N/A 29.94 79(F), 26(C) 54(F), 12(C) 41% 10+ CLR N/A NO PRECIPITATION 1700 N/A 79 F 4428
24 JUN 12 21:03 238 03 N/A N/A 29.95 79(F), 26(C) 52(F), 11(C) 41% 10+ CLR N/A NO PRECIPITATION 1700 N/A 79 F 4427
24 JUN 12 21:02 246 04 N/A N/A 29.95 79(F), 26(C) 52(F), 11(C) 41% 10 CLR N/A NO PRECIPITATION 1700 N/A 79 F 4426
24 JUN 12 21:01 245 03 N/A N/A 29.95 79(F), 26(C) 52(F), 11(C) 41% 10 CLR N/A NO PRECIPITATION 1700 N/A 79 F 4425
24 JUN 12 21:00 265 03 N/A N/A 29.95 77(F), 25(C) 52(F), 11(C) 41% 10 CLR N/A NO PRECIPITATION 1700 N/A 78 F 4424
24 JUN 12 20:59 264 05 N/A N/A 29.95 77(F), 25(C) 52(F), 11(C) 40% 10 CLR N/A NO PRECIPITATION 1700 N/A 78 F 4423
24 JUN 12 20:58 231 04 N/A N/A 29.95 77(F), 25(C) 52(F), 11(C) 41% 10 CLR N/A NO PRECIPITATION 1700 N/A 78 F 4422
24 JUN 12 20:57 249 05 N/A N/A 29.95 77(F), 25(C) 52(F), 11(C) 41% 10 CLR N/A NO PRECIPITATION 1700 N/A 78 F 4421
24 JUN 12 20:56 236 06 N/A N/A 29.95 77(F), 25(C) 52(F), 11(C) 41% 10 CLR N/A NO PRECIPITATION 1700 N/A 78 F 4420
24 JUN 12 20:55 232 06 N/A N/A 29.95 77(F), 25(C) 52(F), 11(C) 41% 10 CLR N/A NO PRECIPITATION 1700 N/A 78 F 4419
24 JUN 12 20:54 230 06 N/A N/A 29.95 75(F), 24(C) 52(F), 11(C) 41% 10 CLR N/A NO PRECIPITATION 1600 N/A 78 F 4418
24 JUN 12 20:52 221 08 N/A N/A 29.95 75(F), 24(C) 52(F), 11(C) 41% 10 CLR N/A NO PRECIPITATION 1600 N/A 78 F 4417
24 JUN 12 20:51 216 06 N/A N/A 29.95 75(F), 24(C) 52(F), 11(C) 41% 10+ CLR N/A NO PRECIPITATION 1600 N/A 78 F 4416
24 JUN 12 20:50 236 07 N/A N/A 29.95 75(F), 24(C) 52(F), 11(C) 41% 10+ CLR N/A NO PRECIPITATION 1600 N/A 78 F 4415
24 JUN 12 20:49 236 07 N/A N/A 29.95 75(F), 24(C) 52(F), 11(C) 41% 10+ CLR N/A NO PRECIPITATION 1600 N/A 78 F 4414
24 JUN 12 20:48 224 07 N/A N/A 29.95 75(F), 24(C) 52(F), 11(C) 41% 10+ CLR N/A NO PRECIPITATION 1600 N/A 78 F 4413
24 JUN 12 20:47 225 07 N/A N/A 29.95 75(F), 24(C) 50(F), 10(C) 40% 10+ CLR N/A NO PRECIPITATION 1600 N/A 77 F 4412
24 JUN 12 20:46 220 04 N/A N/A 29.95 77(F), 25(C) 50(F), 10(C) 40% 10 CLR N/A NO PRECIPITATION 1700 N/A 78 F 4411
24 JUN 12 20:45 233 07 N/A N/A 29.95 77(F), 25(C) 50(F), 10(C) 40% 10 CLR N/A NO PRECIPITATION 1700 N/A 78 F 4410
24 JUN 12 20:44 240 04 N/A N/A 29.95 77(F), 25(C) 50(F), 10(C) 40% 10 CLR N/A NO PRECIPITATION 1700 N/A 78 F 4409
24 JUN 12 20:43 213 07 N/A N/A 29.95 77(F), 25(C) 52(F), 11(C) 40% 10 ( CLR N/A NO PRECIPITATION 1700 N/A 78 F 4408
24 JUN 12 20:42 229 05 N/A N/A 29.95 77(F), 25(C) 52(F), 11(C) 40% 10 CLR N/A NO PRECIPITATION 1700 N/A 78 F 4407
24 JUN 12 20:41 232 10 N/A N/A 29.95 77(F), 25(C) 52(F), 11(C) 40% 10 CLR N/A NO PRECIPITATION 1700 N/A 78 F 4406
24 JUN 12 20:40 238 06 N/A N/A 29.95 77(F), 25(C) 52(F), 11(C) 40% 10 CLR N/A NO PRECIPITATION 1700 N/A 78 F 4405
24 JUN 12 20:39 218 08 N/A N/A 29.95 77(F), 25(C) 52(F), 11(C) 40% 10 CLR N/A NO PRECIPITATION 1700 N/A 78 F 4404
24 JUN 12 20:38 208 07 N/A N/A 29.95 77(F), 25(C) 52(F), 11(C) 40% 10 CLR N/A NO PRECIPITATION 1700 N/A 78 F 4403
24 JUN 12 20:36 222 06 N/A N/A 29.95 77(F), 25(C) 52(F), 11(C) 40% 10 CLR N/A NO PRECIPITATION 1700 N/A 78 F 4402
24 JUN 12 20:35 211 06 N/A N/A 29.95 77(F), 25(C) 52(F), 11(C) 40% 10 CLR N/A NO PRECIPITATION 1700 N/A 78 F 4401
24 JUN 12 20:34 221 07 N/A N/A 29.95 77(F), 25(C) 52(F), 11(C) 41% 10 CLR N/A NO PRECIPITATION 1700 N/A 78 F 4400
24 JUN 12 20:33 221 05 N/A N/A 29.95 77(F), 25(C) 52(F), 11(C) 41% 10 CLR N/A NO PRECIPITATION 1700 N/A 78 F 4399
24 JUN 12 20:32 211 06 N/A N/A 29.95 77(F), 25(C) 52(F), 11(C) 40% 10+ CLR N/A NO PRECIPITATION 1700 N/A 78 F 4398
24 JUN 12 20:31 224 07 N/A N/A 29.95 77(F), 25(C) 52(F), 11(C) 41% 10+ CLR N/A NO PRECIPITATION 1700 N/A 78 F 4397
24 JUN 12 20:30 213 04 N/A N/A 29.95 77(F), 25(C) 52(F), 11(C) 41% 10+ CLR N/A NO PRECIPITATION 1700 N/A 78 F 4396
24 JUN 12 20:29 239 04 N/A N/A 29.95 77(F), 25(C) 52(F), 11(C) 41% 10+ CLR N/A NO PRECIPITATION 1700 N/A 78 F 4395
24 JUN 13 20:28 209 06 N/A N/A N/A 77(F), 25(C) 52(F), 11(C) 41% 10+ " ! CLR N/A NO PRECIPITATION 1700 N/A 78 F 4394
24 JUN 12 20:27 231 06 N/A N/A 29.95 77(F), 25(C) 52(F), 11(C) 41% 10+ CLR N/A NO PRECIPITATION 1700 N/A 78 F 4393
24 JUN 12 20:26 235 05 N/A N/A 29.95 77(F), 25(C) 52(F), 11(C) 40% 10+ CLR N/A NO PRECIPITATION 1700 N/A 78 F 4392
24 JUN 12 20:25 235 04 N/A N/A 29.95 77(F), 25(C) 52(F), 11(C) 40% 10+ CLR N/A NO PRECIPITATION 1700 N/A 78 F 4391
24 JUN 12 20:24 239 05 N/A N/A 29.95 77(F), 25(C) 52(F), 11(C) 40% 10+ CLR N/A NO PRECIPITATION 1700 N/A 78 F 4390
24 JUN 12 20:23 247 08 N/A N/A 29.95 77(F), 25(C) 52(F), 11(C) 40% 10+ CLR N/A NO PRECIPITATION 1700 N/A 78 F 4389
24 JUN 12 20:22 211 06 N/A N/A 29.95 77(F), 25(C) 50(F), 10(C) 39% 10+ CLR N/A NO PRECIPITATION 1700 N/A 78 F 4388
24 JUN 12 20:21 230 06 N/A N/A 29.95 77(F), 25(C) 50(F), 10(C) 39% 10+ CLR N/A NO PRECIPITATION 1700 N/A 78 F 4387
24 JUN 12 20:20 226 07 N/A N/A 29.95 77(F), 25(C) 50(F), 10(C) 39% 10+ CLR N/A NO PRECIPITATION 1700 N/A 78 F 4386
24 JUN 12 20:19 232 08 N/A N/A 29.95 77(F), 25(C) 50(F), 10(C) 39% 10 CLR N/A NO PRECIPITATION 1700 N/A 78 F 4385
24 JUN 12 20:18 226 06 N/A N/A 29.95 77(F), 25(C) 50(F), 10(C) 38% 10 Missing N/A NO PRECIPITATION 1700 N/A 78 F 4384
24 JUN 12 20:17 205 06 N/A !$ 29.95 77(F), 25(C) 50(F), 10(C) 38% 10 Missing N/A NO PRECIPITATION 1700 N/A 78 F 4383
24 JUN 12 20:16 227 07 N/A 190V250 29.95 77(F), 25(C) 48(F), 9(C) 38% 10 Missing N/A NO PRECIPITATION 1700 N/A 78 F 4382
24 JUN 12 20:15 232 05 N/A 190V250 29.95 77(F), 25(C) 48(F), 9(C) 38% 10 Missing N/A NO PRECIPITATION 1700 N/A 78 F 4381
24 JUN 12 20:14 204 07 N/A N/A 29.96 77(F), 25(C) 50(F), 10(C) 39% 10 Missing N/A NO PRECIPITATION 1700 N/A 78 F 4380
24 JUN 12 20:13 227 09 N/A N/A 29.96 77(F), 25(C) 50(F), 10(C) 39% 10 Missing N/A NO PRECIPITATION 1700 N/A 78 F 4379
24 JUN 12 20:12 235 08 N/A N/A 29.96 77(F), 25(C) 50(F), 10(C) 39% 10 Missing N/A NO PRECIPITATION 1700 N/A 78 F 4378
24 JUN 12 20:11 237 07 N/A N/A 29.96 77(F), 25(C) 50(F), 10(C) 39% 10 Missing N/A NO PRECIPITATION 1700 N/A 78 F 4377
24 JUN 12 20:10 212 06 N/A N/A 29.96 77(F), 25(C) 50(F), 10(C) 39% 10+ Missing N/A NO PRECIPITATION 1700 N/A 78 F 4376
24 JUN 12 20:09 222 05 N/A N/A 29.96 77(F), 25(C) 50(F), 10(C) 39% 10+ Missing N/A NO PRECIPITATION 1700 N/A 78 F 4375
24 JUN 12 20:08 222 05 N/A N/A 29.96 77(F), 25(C) 50(F), 10(C) 39% 10+ Missing N/A NO PRECIPITATION 1700 N/A 78 F 4374
24 JUN 12 20:07 212 07 N/A N/A 29.96 77(F), 25(C) 50(F), 10(C) 39% 10+ CLR N/A NO PRECIPITATION 1700 N/A 78 F 4373
24 JUN 12 20:06 215 0v N/A N/A 29.96 77(F), 25(C) 50(F), 10(C) 39% 10+ CLR N/A NO PRECIPITATION 0 #X68:>01 39 1780 N/A 78 F 4372
24 JUN 12 20:05 223 05 N/A N/A 29.96 77(F), 25(C) 50(F), 10(C) 39% 10+ CLR N/A NO PRECIPITATION 1700 N/A 78 F 4371
24 JUN 12 20:04 238 06 N/A N/A 29.96 77(F), 25(C) 50(F), 10(C) 39% 10+ CLR N/A NO PRECIPITATION 1700 N/A 78 F 4370
24 JUN 12 20:03 212 05 N/A N/A 29.96 77(F), 25(C) 50(F), 10(C) 39% 10+ CLR N/A NO PRECIPITATION 1700 N/A 78 F 4369
24 JUN 12 20:01 246 09 N/A N/A 29.96 77(F), 25(C) 50(F), 10(C) 39% 10+ CLR N/A NO PRECIPITATION 1700 N/A 78 F 4368
24 JUN 12 20:00 216 09 N/A N/A 29.96 79(F), 26(C) 50(F), 10(C) 38% 10+ CLR N/A NO PRECIPITATION 1700 N/A 79 F 4367
24 JUN 12 19:59 206 07 N/A N/A 29.96 79(F), 26(C) 50(F), 10(C) 38% 10+ CLR N/A NO PRECIPITATION 1700 N/A 79 F 4366
24 JUN 12 19:58 214 08 N/A N/A 29.96 79(F), 26(C) 50(F), 10(C) 38% 10+ CLR N/A NO PRECIPITATION 1700 N/A 79 F 4365
24 JUN 12 19:57 239 07 N/A N/A 29.96 79(F), 26(C) 50(F), 10(C) 38% 10+ CLR N/A NO PRECIPITATION 1700 N/A 79 F 4364
24 JUN 12 19:56 189 07 N/A N/A 29.96 79(F), 26(C) 50(F), 10(C) 38% 10 CLR N/A NO PRECIPITATION 1700 N/A 79 F 4363
24 JUN 12 19:55 218 09 N/A N/A 29.96 79(F), 26(C) 50(F), 10(C) 38% 10 FEW040 N/A NO PRECIPITATION 1700 N/A 79 F 4362
24 JUN 12 19:54 226 04 N/A 190V260 29.96 79(F), 26(C) 50(F), 10(C) 38% 10 FEW040 N/A NO PRECIPITATION 1700 N/A 79 F 4361
24 JUN 12 19:53 197 08 N/A 190V260 29.96 79(F), 26(C) 50(F), 10(C) 38% 10 FEW040 N/A NO PRECIPITATION 1700 N/A 79 F 4360
24 JUN 12 19:52 209 07 N/A 190V260 29.96 79(F), 26(C) 50(F), 10(C) 38% 10 FEW040 N/A NO PRECIPITATION 1700 N/A 79 F 4359
24 JUN 12 19:51 221 08 N/A N/A 29.96 79(F), 26(C) 50(F), 10(C) 38% 10 FEW040 N/A NO PRECIPITATION 1700 N/A 79 F 4358
24 JUN 12 19:50 237 07 N/A N/A 29.96 79(F), 26(C) 52(F), 11(C) 38% 10 FEW040 N/A NO PRECIPITATION 1700 N/A 79 F 4357
24 JUN 12 19:49 207 07 N/A N/A 29.96 79(F), 26(C) 52(F), 11(C) 38% 10 FEW040 N/A NO PRECIPITATION 1700 N/A 79 F 4356
24 JUN 12 19:48 229 09 N/A N/A 29.96 79(F), 26(C) 52(F), 11(C) 38% 10 FEW040 N/A NO PRECIPITATION 1700 N/A 79 F 4355
24 JUN 12 19:47 216 06 N/A N/A 29.96 79(F), 26(C) 52(F), 11(C) 38% 10 FEW040 N/A NO PRECIPITATION 1700 N/A 79 F 4354
24 JUN 12 19:46 221 07 N/A N/A 29.96 79(F), 26(C) 52(F), 11(C) 39% 10+ CLR N/A NO PRECIPITATION 1700 N/A 79 F 4353
24 JUN 12 19:45 205 06 N/A N/A 29.96 79(F), 26(C) 52(F), 11(C) 39% 10+ CLR N/A NO PRECIPITATION 1700 N/A 79 F 4352
24 JUN 12 19:44 224 09 N/A N/A 29.96 79(F), 26(C) 52(F), 11(C) 38% 10+ CLR N/A NO PRECIPITATION 1700 N/A 79 F 4351
24 JUN 12 19:43 191 07 N/A N/A 29.96 79(F), 26(C) 52(F), 11(C) 38% 10+ CLR N/A NO PRECIPITATION 1700 N/A 79 F 4350
24 JUN 12 19:42 226 08 N/A N/A 29.96 79(F), 26(C) 52(F), 11(C) 38% 10+ CLR N/A NO PRECIPITATION 1700 N/A 79 F 4349
24 JUN 12 19:41 203 10 N/A N/A 29.96 79(F), 26(C) 52(F), 11(C) 38% 10+ CLR N/A NO PRECIPITATION 1700 N/A 79 F 4348
24 JUN 12 19:40 218 09 N/A N/A 29.96 79(F), 26(C) 52(F), 11(C) 38% 10+ CLR N/A NO PRECIPITATION 1700 N/A 79 F 4347
24 JUN 12 19:39 206 10 N/A N/A 29.96 79(F), 26(C) 52(F), 11(C) 38% 10+ CLR N/A NO PRECIPITATION 1700 N/A 79 F 4346
24 JUN 12 19:38 212 04 N/A 90V260 29.96 79(F), 26(C) 52(F), 11(C) 38% ( 10+ (CLR Current Tip: 000",Total Tip: 9.05" NO PRECIPITATION 1700 N/A 79 F 4345